[[{"header":{"parameterUnit":"m.s-1","parameterCategory":2,"la1":30.2991,"la2":30.254,"lo1":-89.0895,"lo2":-89.0444,"dy":0.0017,"dx":0.0017,"nx":28,"ny":28,"refTime":"2023-09-03T09:00:00:Z","depth":"0","parameterNumber":2,"parameterNumberName":"U-component_of_CURRENTS"},"data":[0,0,0,0,0,0,0,0,0,0,0,0,0,0,0,0,0,0,0,0,0,0,0,0,0,0,0,0,0,0,0,0,0,0,0,0,0,0,0,0,0,0,0,0,0,0,0,0,0,0,0,0,0,0,0,0,0,0,0.2251,0.2251,0,0.2246,0.2246,0.2246,0.2233,0.2233,0.2232,0.2232,0.2208,0.2208,0.2207,0,0,0,0,0,0,0,0,0,0,0,0,0,0.2257,0.2257,0.2251,0.2251,0.2251,0.2246,0.2246,0.2246,0.2233,0.2233,0.2232,0.2232,0.2208,0.2208,0.2207,0,0,0,0,0,0,0,0,0,0,0,0,0,0.2252,0.2257,0.2251,0.2245,0.2244,0.2246,0.2246,0.2246,0.2233,0.2233,0.2232,0.2232,0.2208,0.2208,0.2207,0.2207,0,0,0.2205,0.2204,0,0,0,0,0,0,0,0,0.2253,0.2252,0.2246,0.2245,0.2245,0.2241,0.224,0.2232,0.2233,0.2236,0.2232,0.2232,0.2218,0.2217,0.2215,0.2206,0.2205,0.2205,0.2204,0.2204,0.2204,0,0,0,0,0,0,0,0.2253,0.2252,0.2248,0.2246,0.2245,0.2246,0.2244,0.2238,0.2227,0.2235,0.2235,0.2237,0.2218,0.2216,0.2214,0.2205,0.2205,0.2204,0.2204,0.2203,0.2226,0.2227,0,0,0,0,0,0,0.2256,0.2252,0.2248,0.2248,0.225,0.2246,0.2244,0.2241,0.2228,0.2226,0.2237,0.2236,0.2217,0.2215,0.2213,0.2232,0.2204,0.2203,0.2203,0.2225,0.2226,0.2227,0,0,0,0,0,0,0.2256,0.2255,0.2248,0.2251,0.2251,0.2246,0.2243,0.2241,0.2244,0.2229,0.2226,0.2241,0.2217,0.2214,0.2217,0.2231,0.2203,0.2202,0.2224,0.2225,0.2227,0.2258,0,0,0,0,0,0,0.2256,0.2255,0.2255,0.2251,0.2251,0.2255,0.2243,0.2242,0.2246,0.2245,0.2232,0.2229,0.2216,0.2218,0.2216,0.2229,0.2202,0.2222,0.2224,0.2226,0.2256,0.2261,0.2265,0,0,0,0,0,0.2256,0.2256,0.2255,0.2255,0.225,0.2256,0.2255,0.225,0.2246,0.2251,0.2245,0.223,0.2229,0.2218,0.2216,0.2229,0.2221,0.2224,0.2226,0.2254,0.226,0.2265,0,0,0,0,0,0,0.2258,0.2255,0.2254,0.2253,0.2257,0.2254,0.2257,0.2256,0.2254,0.2253,0.2238,0.2236,0.2246,0.2235,0.2224,0.2243,0.2225,0.2227,0.2247,0.2252,0.2257,0.2267,0.2201,0,0,0,0,0,0.2259,0.2258,0.226,0.226,0.2263,0.2262,0.2264,0.2263,0.2262,0.2261,0.2253,0.2249,0.2254,0.2251,0.2251,0.2256,0.2265,0.2266,0.227,0.2274,0.2282,0.2311,0.2319,0.2235,0.2235,0.2235,0,0,0.2259,0.2259,0.2257,0.2261,0.2262,0.227,0.2263,0.227,0.2277,0.2259,0.2264,0.2264,0.2261,0.2271,0.2274,0.2261,0.2304,0.2277,0.228,0.2287,0.2314,0.2322,0.233,0.2236,0.2236,0.2236,0,0,0.2258,0.226,0.2259,0.2265,0.2273,0.2278,0.2284,0.2286,0.2289,0.2295,0.2292,0.2303,0.2294,0.2303,0.2305,0.2335,0.233,0.2334,0.2359,0.2386,0.2393,0.2399,0.2427,0.2435,0.2331,0.2331,0.2332,0,0.2259,0.2256,0.2261,0.2265,0.2271,0.2284,0.229,0.23,0.2303,0.2311,0.23,0.2318,0.2313,0.234,0.2352,0.2345,0.2359,0.2335,0.2392,0.2398,0.2404,0.243,0.2439,0.2333,0.2333,0.2333,0.2333,0,0.2254,0.2258,0.2261,0.227,0.228,0.229,0.2307,0.2318,0.2324,0.2333,0.2358,0.2361,0.2371,0.2376,0.237,0.2415,0.2411,0.2397,0.2377,0.2415,0.244,0.2449,0.2336,0.2335,0.2335,0.2334,0,0,0.2239,0.2254,0.2255,0.2259,0.2284,0.2289,0.2315,0.2339,0.2361,0.2369,0.2394,0.2413,0.2422,0.2426,0.243,0.2455,0.2509,0.2445,0.2446,0.247,0.2575,0.2568,0.2576,0.2503,0.2505,0.2506,0.2578,0,0.2234,0.2239,0.2251,0.2264,0.227,0.2294,0.232,0.2346,0.2371,0.24,0.2421,0.2449,0.244,0.2453,0.2478,0.2506,0.2533,0.2492,0.2537,0.2539,0.2525,0.2586,0.2517,0.2575,0.2586,0.2588,0.2589,0,0.2218,0.2228,0.2234,0.2262,0.2268,0.2282,0.2326,0.2352,0.2407,0.2428,0.2463,0.2482,0.2532,0.2512,0.2582,0.2556,0.2572,0.2587,0.259,0.2578,0.2548,0.2538,0.259,0.2549,0.2602,0.2601,0.26,0,0.2191,0.2212,0.2217,0.2225,0.2262,0.2273,0.2302,0.2357,0.2383,0.2455,0.2479,0.2537,0.2569,0.2603,0.2638,0.2614,0.2711,0.2676,0.2686,0.2685,0.2634,0.2626,0.2649,0.2726,0.2726,0.2725,0.2725,0,0.2172,0.2174,0.2205,0.2205,0.222,0.226,0.2289,0.2331,0.2395,0.2436,0.2495,0.2541,0.2594,0.2647,0.2665,0.2716,0.2734,0.2712,0.2711,0.2644,0.2636,0.2603,0.2577,0.2728,0.2727,0.2727,0.2726,0,0.2131,0.2151,0.2154,0.2192,0.22,0.2212,0.2259,0.2288,0.2367,0.2422,0.2446,0.2552,0.2642,0.2691,0.2763,0.2756,0.2731,0.2806,0.2727,0.2716,0.2669,0.2647,0.2538,0.2458,0.2828,0.2828,0.2829,0,0.2109,0.2108,0.2127,0.2128,0.214,0.2164,0.2182,0.2256,0.2295,0.2428,0.2456,0.2571,0.2637,0.2754,0.279,0.2838,0.2749,0.2788,0.2728,0.268,0.2655,0.2508,0.2437,0.2675,0.2674,0.2673,0.2672,0,0.207,0.2076,0.2081,0.2078,0.2086,0.2092,0.2134,0.2154,0.226,0.2317,0.2419,0.2486,0.2636,0.2681,0.2768,0.2782,0.2662,0.2773,0.2741,0.2564,0.2386,0.2304,0.2616,0.2665,0.2666,0.2667,0.2667,0.2667,0.2039,0.2027,0.2031,0.2018,0.2025,0.2021,0.2002,0.2068,0.2111,0.2191,0.2326,0.241,0.2564,0.2686,0.2682,0.2675,0.2616,0.2621,0.261,0.2472,0.2357,0.2661,0.2695,0.2696,0.2696,0.2697,0.2698,0,0.1985,0.1975,0.197,0.1943,0.1915,0.1943,0.1961,0.194,0.1958,0.2087,0.2159,0.2333,0.2414,0.2519,0.2601,0.2538,0.2371,0.248,0.2266,0.2212,0.252,0.2478,0.2443,0.2443,0.2443,0.2443,0.2443,0.2443,0.1956,0.192,0.1907,0.1833,0.1815,0.175,0.1737,0.1737,0.1802,0.1876,0.1975,0.2098,0.234,0.2489,0.249,0.2429,0.2241,0.2138,0.2107,0.2363,0.2375,0.2385,0.2341,0.2277,0.2277,0.1692,0.1688,0.1685]},{"header":{"parameterUnit":"m.s-1","parameterCategory":2,"la1":30.2991,"la2":30.254,"lo1":-89.0895,"lo2":-89.0444,"dy":0.0017,"dx":0.0017,"nx":28,"ny":28,"refTime":"2023-09-03T09:00:00:Z","depth":"0","parameterNumber":3,"parameterNumberName":"V-component_of_CURRENTS"},"data":[0,0,0,0,0,0,0,0,0,0,0,0,0,0,0,0,0,0,0,0,0,0,0,0,0,0,0,0,0,0,0,0,0,0,0,0,0,0,0,0,0,0,0,0,0,0,0,0,0,0,0,0,0,0,0,0,0,0,0.0142,0.0141,0,0.0083,0.0082,0.0081,0.0043,0.0043,0.0043,0.0043,-0.0022,-0.0023,-0.0025,0,0,0,0,0,0,0,0,0,0,0,0,0,0.0182,0.0181,0.0142,0.0141,0.0141,0.0083,0.0082,0.0081,0.0043,0.0043,0.0043,0.0043,-0.0021,-0.0023,-0.0025,0,0,0,0,0,0,0,0,0,0,0,0,0,0.0146,0.0181,0.0142,0.0116,0.0113,0.0083,0.0082,0.008,0.0043,0.0043,0.0043,0.0043,-0.0021,-0.0023,-0.0025,-0.0038,0,0,-0.0033,-0.0034,0,0,0,0,0,0,0,0,0.0148,0.0145,0.0121,0.0118,0.0115,0.0071,0.0072,0.0041,0.0043,0.0068,0.0043,0.0042,0.001,0.0005,-0.0008,-0.0041,-0.0044,-0.0033,-0.0035,-0.0036,-0.0036,0,0,0,0,0,0,0,0.0151,0.0147,0.0117,0.012,0.0116,0.0094,0.0089,0.0066,0.0039,0.0066,0.0063,0.0059,0.0008,-0.0006,-0.001,-0.0045,-0.0033,-0.0035,-0.0037,-0.0038,-0.0084,-0.0084,0,0,0,0,0,0,0.0164,0.0149,0.0119,0.0115,0.0133,0.0093,0.0087,0.0084,0.0039,0.0033,0.0059,0.0058,-0.0001,-0.0007,-0.0012,-0.0013,-0.0036,-0.0038,-0.0039,-0.0085,-0.0084,-0.0084,0,0,0,0,0,0,0.0165,0.0162,0.0121,0.0132,0.0126,0.0093,0.0089,0.0083,0.0073,0.0035,0.0028,0.0057,-0.0002,-0.0009,-0.0025,-0.0017,-0.0039,-0.0041,-0.0085,-0.0085,-0.0084,-0.0026,0,0,0,0,0,0,0.0166,0.0162,0.0165,0.0133,0.0126,0.011,0.0089,0.0082,0.0071,0.0069,0.003,0.0024,-0.0002,-0.0021,-0.0028,-0.002,-0.0043,-0.0085,-0.0085,-0.0084,-0.0028,-0.0024,-0.002,0,0,0,0,0,0.0168,0.0173,0.0165,0.0161,0.013,0.0111,0.0105,0.008,0.0072,0.007,0.0046,0.0025,-0.0023,-0.0023,-0.003,-0.0024,-0.0085,-0.0085,-0.0084,-0.003,-0.0025,-0.002,0,0,0,0,0,0,0.019,0.0169,0.0159,0.0158,0.014,0.0105,0.0102,0.0086,0.0065,0.0065,0.0028,0.002,0.0008,-0.0016,-0.0015,-0.0037,-0.0058,-0.0059,-0.0014,-0.0009,-0.0005,0.001,-0.0045,0,0,0,0,0,0.0197,0.0197,0.0172,0.0171,0.0165,0.0135,0.0125,0.011,0.0087,0.0077,0.0051,0.0024,0.0003,-0.0008,-0.0032,-0.0043,-0.0066,-0.0044,-0.004,-0.0036,-0.003,-0.0057,-0.0055,-0.0082,-0.0082,-0.0082,0,0,0.0205,0.0195,0.0194,0.0176,0.016,0.0158,0.0129,0.012,0.0119,0.0074,0.0066,0.0038,0.0004,-0.0008,-0.0016,-0.0026,-0.004,-0.0036,-0.0032,-0.0028,-0.0056,-0.0054,-0.0051,-0.0082,-0.0082,-0.0082,0,0,0.0225,0.0214,0.0221,0.0209,0.0193,0.0178,0.018,0.0151,0.0139,0.0127,0.0097,0.0077,0.0042,0.002,0.0004,0.0017,-0.0017,0.0008,0.0041,0.0015,0.0017,0.0019,-0.0004,-0.0005,0.001,0.001,0.001,0,0.0237,0.0242,0.022,0.0224,0.0223,0.0192,0.0203,0.0185,0.0155,0.0152,0.0133,0.0087,0.0056,0.0044,0.0046,0.0027,0.0008,0.0027,0.0022,0.0023,0.0023,-0.0001,-0.0002,0.0013,0.0013,0.0013,0.0012,0,0.026,0.0264,0.0268,0.0267,0.0264,0.0266,0.0246,0.0238,0.0222,0.0205,0.0188,0.0142,0.0117,0.0101,0.0077,0.0069,0.0052,0.0031,0.0012,0.003,0.0003,0.0001,0.0017,0.0016,0.0015,0.0015,0,0,0.0288,0.0287,0.0288,0.0299,0.0289,0.0292,0.0294,0.029,0.0298,0.0259,0.0264,0.0218,0.0193,0.0174,0.0137,0.011,0.0095,0.0078,0.0075,0.0061,0.004,0.0034,0.003,0.0074,0.0073,0.0073,0.0021,0,0.0314,0.0336,0.0329,0.0357,0.0371,0.035,0.0358,0.035,0.0337,0.033,0.0282,0.027,0.0221,0.0211,0.0177,0.0119,0.009,0.0111,0.0019,0.0017,0.0014,0.0027,0.0059,0.0015,0.0018,0.0017,0.0017,0,0.0343,0.0355,0.0388,0.041,0.0415,0.0426,0.0443,0.0447,0.0428,0.0416,0.0391,0.0352,0.0311,0.0264,0.0174,0.0191,0.0123,0.007,0.0066,0.0039,0.0005,-0.0004,0.0009,-0.0089,0.0012,0.0013,0.0013,0,0.0381,0.0401,0.0435,0.0439,0.0453,0.0466,0.0476,0.0473,0.0491,0.0473,0.0482,0.042,0.0399,0.0306,0.0198,0.0185,0.0097,0.0063,-0.0008,-0.001,-0.0012,-0.0013,-0.0098,-0.0004,-0.0004,-0.0004,-0.0003,0,0.0415,0.0441,0.0453,0.0469,0.0512,0.0511,0.0552,0.055,0.056,0.0599,0.0533,0.0543,0.0408,0.034,0.0227,0.0112,0.0118,0.0003,-0.0022,0.0009,0.0011,-0.0099,-0.0175,-0.0006,-0.0005,-0.0005,-0.0004,0,0.045,0.0456,0.0497,0.052,0.0532,0.0564,0.0604,0.0636,0.0638,0.0685,0.0685,0.0637,0.0556,0.0417,0.0271,0.0162,-0.0024,-0.0006,0.0043,0.0025,-0.0138,-0.0212,-0.0338,-0.0409,-0.0095,-0.0095,-0.0096,0,0.047,0.0494,0.0536,0.0564,0.0575,0.0617,0.0653,0.0672,0.0719,0.075,0.0785,0.0721,0.0701,0.0487,0.0285,0.0093,-0.0032,-0.002,-0.0046,-0.0137,-0.0239,-0.0286,-0.0341,-0.0028,-0.0028,-0.0028,-0.0028,0,0.0507,0.0521,0.0552,0.0606,0.065,0.0705,0.0761,0.0809,0.0851,0.0892,0.094,0.0925,0.0745,0.0579,0.0315,0.0167,-0.0094,-0.0023,-0.0131,-0.0202,-0.0247,-0.0329,-0.0006,-0.0026,-0.0026,-0.0026,-0.0026,-0.0027,0.0534,0.0559,0.0597,0.065,0.0708,0.0784,0.0833,0.0907,0.0987,0.1071,0.1063,0.1088,0.086,0.0512,0.0291,-0.0064,-0.01,-0.0167,-0.0252,-0.0292,-0.0355,-0.0026,-0.0066,-0.0066,-0.0067,-0.0067,-0.0067,0,0.0561,0.0587,0.0637,0.0701,0.0767,0.0794,0.0901,0.096,0.1059,0.1172,0.122,0.1172,0.0856,0.0526,0.0053,-0.022,-0.0338,-0.0378,-0.0437,-0.0488,-0.0195,-0.0184,-0.0235,-0.0235,-0.0235,-0.0234,-0.0234,-0.0234,0.0575,0.0616,0.0635,0.0732,0.0785,0.0875,0.0936,0.1033,0.1134,0.1272,0.1347,0.1395,0.122,0.0333,-0.0258,-0.0431,-0.0642,-0.0678,-0.081,-0.06,-0.0586,-0.0573,-0.0579,-0.0711,-0.0712,-0.1043,-0.1046,-0.1049]}],[{"header":{"parameterUnit":"m.s-1","parameterCategory":2,"la1":30.2991,"la2":30.254,"lo1":-89.0895,"lo2":-89.0444,"dy":0.0017,"dx":0.0017,"nx":28,"ny":28,"refTime":"2023-09-03T09:00:00:Z","depth":"2","parameterNumber":2,"parameterNumberName":"U-component_of_CURRENTS"},"data":[0,0,0,0,0,0,0,0,0,0,0,0,0,0,0,0,0,0,0,0,0,0,0,0,0,0,0,0,0,0,0,0,0,0,0,0,0,0,0,0,0,0,0,0,0,0,0,0,0,0,0,0,0,0,0,0,0,0,0.2187,0.2187,0,0.219,0.219,0.219,0.2184,0.2184,0.2184,0.2184,0.2171,0.2171,0.2171,0,0,0,0,0,0,0,0,0,0,0,0,0,0.2179,0.2179,0.2187,0.2187,0.2187,0.219,0.219,0.219,0.2184,0.2184,0.2184,0.2184,0.2171,0.2171,0.2171,0,0,0,0,0,0,0,0,0,0,0,0,0,0.2181,0.2179,0.2187,0.2186,0.2186,0.219,0.219,0.219,0.2184,0.2184,0.2184,0.2184,0.2172,0.2171,0.2171,0.217,0,0,0.2169,0.2169,0,0,0,0,0,0,0,0,0.2181,0.2181,0.2186,0.2186,0.2186,0.2188,0.2183,0.2183,0.2184,0.2183,0.2184,0.2184,0.2176,0.2176,0.2175,0.217,0.2169,0.2169,0.2169,0.2169,0.2169,0,0,0,0,0,0,0,0.2181,0.2181,0.2187,0.2186,0.2186,0.2186,0.2186,0.2183,0.2179,0.2183,0.2183,0.2186,0.2176,0.2175,0.2174,0.2169,0.2169,0.2169,0.2169,0.2169,0.2199,0.22,0,0,0,0,0,0,0.2183,0.2181,0.2187,0.2187,0.2185,0.2187,0.2187,0.2186,0.2179,0.2179,0.2186,0.2186,0.2176,0.2175,0.2174,0.2199,0.2169,0.2169,0.2168,0.2198,0.2199,0.22,0,0,0,0,0,0,0.2183,0.2183,0.2187,0.2185,0.2186,0.2187,0.2187,0.2186,0.2193,0.2182,0.2181,0.2194,0.2176,0.2174,0.2182,0.2197,0.2168,0.2168,0.2196,0.2198,0.22,0.2232,0,0,0,0,0,0,0.2182,0.2183,0.2186,0.2185,0.2186,0.2196,0.2187,0.2187,0.2195,0.2195,0.2188,0.2186,0.2176,0.2183,0.2182,0.2196,0.2168,0.2195,0.2197,0.2199,0.2229,0.2234,0.2239,0,0,0,0,0,0.2182,0.2185,0.2186,0.2187,0.2189,0.2197,0.2198,0.2197,0.2196,0.2202,0.22,0.2187,0.2195,0.2183,0.2182,0.2196,0.2194,0.2197,0.2199,0.2227,0.2233,0.2238,0,0,0,0,0,0,0.2183,0.2185,0.2186,0.219,0.2198,0.2197,0.2203,0.2204,0.2207,0.2208,0.2196,0.2195,0.221,0.2201,0.2188,0.2213,0.2194,0.2196,0.2216,0.2222,0.2226,0.2235,0.2167,0,0,0,0,0,0.2185,0.2189,0.2193,0.2198,0.2203,0.2206,0.221,0.2211,0.2213,0.2215,0.221,0.2211,0.2218,0.2217,0.222,0.2228,0.2236,0.2239,0.2244,0.2247,0.2255,0.2283,0.229,0.2208,0.2208,0.2208,0,0,0.2186,0.2189,0.2191,0.2199,0.2204,0.2213,0.2208,0.2219,0.2228,0.2213,0.2224,0.2227,0.2225,0.2238,0.2244,0.2232,0.2276,0.225,0.2253,0.226,0.2286,0.2294,0.2301,0.2209,0.2209,0.2209,0,0,0.2188,0.2195,0.2197,0.2206,0.2218,0.2224,0.2231,0.2237,0.2243,0.2253,0.2252,0.2267,0.2264,0.2273,0.2275,0.2307,0.2302,0.2308,0.2333,0.2359,0.2366,0.2372,0.2397,0.2405,0.2306,0.2306,0.2306,0,0.219,0.2192,0.2201,0.2207,0.2216,0.2231,0.2239,0.2252,0.226,0.2269,0.2261,0.2284,0.2282,0.231,0.2323,0.2318,0.2331,0.2309,0.2365,0.2371,0.2377,0.2401,0.2409,0.2308,0.2308,0.2307,0.2307,0,0.2189,0.2197,0.2203,0.2216,0.2228,0.2241,0.2259,0.2274,0.2283,0.2294,0.2323,0.2328,0.2341,0.2347,0.2343,0.2387,0.2384,0.237,0.235,0.2387,0.241,0.2418,0.231,0.231,0.2309,0.2309,0,0,0.2176,0.2198,0.22,0.2207,0.2235,0.2242,0.2269,0.2295,0.2319,0.2332,0.2359,0.2381,0.2391,0.2397,0.2402,0.2426,0.2479,0.2418,0.2418,0.244,0.2543,0.2526,0.2533,0.2475,0.2476,0.2478,0.2543,0,0.2174,0.2185,0.2199,0.2216,0.2225,0.225,0.2277,0.2305,0.2332,0.2364,0.2386,0.2417,0.2409,0.2425,0.2449,0.2476,0.2502,0.2463,0.2505,0.2507,0.2485,0.2543,0.2334,0.2374,0.2551,0.2553,0.2554,0,0.2163,0.2175,0.2186,0.2217,0.2224,0.2242,0.2287,0.2315,0.237,0.2392,0.243,0.245,0.2499,0.2481,0.2548,0.2524,0.254,0.2555,0.2557,0.2536,0.2506,0.2365,0.2382,0.2567,0.2566,0.2565,0.2564,0,0.2137,0.2163,0.2172,0.2181,0.2221,0.2235,0.2266,0.2322,0.2347,0.242,0.2446,0.2503,0.2536,0.2569,0.2602,0.2581,0.2671,0.2639,0.264,0.2638,0.2467,0.2448,0.2686,0.2686,0.2686,0.2686,0.2686,0,0.212,0.2126,0.2162,0.2164,0.2183,0.2225,0.2256,0.2299,0.2363,0.2403,0.2463,0.2507,0.256,0.261,0.2628,0.2671,0.2693,0.2664,0.2662,0.2473,0.2456,0.2622,0.2614,0.2688,0.2688,0.2687,0.2687,0,0.2082,0.2105,0.2113,0.2154,0.2165,0.218,0.223,0.2259,0.2338,0.2392,0.2417,0.2519,0.2603,0.2648,0.2717,0.2706,0.2745,0.2749,0.253,0.2502,0.2686,0.2678,0.2758,0.2758,0.2759,0.2759,0.2759,0,0.2061,0.2063,0.2089,0.2092,0.2108,0.2136,0.2156,0.2231,0.2269,0.2398,0.2424,0.2534,0.2589,0.2694,0.2709,0.2745,0.2776,0.2569,0.2493,0.2707,0.2697,0.2689,0.2682,0.2275,0.2271,0.2268,0.2265,0,0.2025,0.2035,0.2043,0.2046,0.2058,0.2066,0.211,0.2129,0.2233,0.2286,0.238,0.2438,0.2558,0.2517,0.2585,0.2574,0.2548,0.2508,0.2786,0.23,0.226,0.2247,0.2254,0.2237,0.224,0.2242,0.2243,0.2244,0.1996,0.1988,0.1997,0.199,0.2,0.1997,0.198,0.2041,0.2079,0.2142,0.2267,0.2292,0.2349,0.2357,0.2305,0.2275,0.2455,0.2337,0.2343,0.2353,0.2296,0.2259,0.2226,0.2228,0.2231,0.2233,0.2235,0,0.1944,0.194,0.1939,0.1918,0.1892,0.1924,0.194,0.1911,0.192,0.2008,0.2059,0.1946,0.1944,0.1995,0.1915,0.1942,0.1874,0.1857,0.1739,0.1772,0.18,0.1709,0.1486,0.1483,0.148,0.1478,0,0,0.1918,0.1886,0.1875,0.1807,0.1796,0.1733,0.172,0.1702,0.1731,0.1712,0.1712,0.1861,0.1952,0.1689,0.1673,0.1559,0.1637,0.1496,0.2107,0.2002,0.2025,0.2103,0.2007,0,0,0,0,0]},{"header":{"parameterUnit":"m.s-1","parameterCategory":2,"la1":30.2991,"la2":30.254,"lo1":-89.0895,"lo2":-89.0444,"dy":0.0017,"dx":0.0017,"nx":28,"ny":28,"refTime":"2023-09-03T09:00:00:Z","depth":"2","parameterNumber":3,"parameterNumberName":"V-component_of_CURRENTS"},"data":[0,0,0,0,0,0,0,0,0,0,0,0,0,0,0,0,0,0,0,0,0,0,0,0,0,0,0,0,0,0,0,0,0,0,0,0,0,0,0,0,0,0,0,0,0,0,0,0,0,0,0,0,0,0,0,0,0,0,0.0057,0.0057,0,0.0,-0.0001,-0.0001,-0.0037,-0.0037,-0.0038,-0.0038,-0.01,-0.0101,-0.0103,0,0,0,0,0,0,0,0,0,0,0,0,0,0.0093,0.0092,0.0057,0.0057,0.0056,0.0,-0.0001,-0.0002,-0.0037,-0.0037,-0.0038,-0.0038,-0.0099,-0.0101,-0.0103,0,0,0,0,0,0,0,0,0,0,0,0,0,0.0059,0.0092,0.0057,0.0033,0.003,0.0001,-0.0001,-0.0002,-0.0037,-0.0037,-0.0038,-0.0038,-0.0099,-0.0101,-0.0104,-0.0117,0,0,-0.0111,-0.0112,0,0,0,0,0,0,0,0,0.0061,0.0058,0.0037,0.0035,0.0032,-0.001,-0.0011,-0.004,-0.0037,-0.0014,-0.0038,-0.0038,-0.0069,-0.0074,-0.0087,-0.012,-0.0122,-0.0111,-0.0113,-0.0114,-0.0114,0,0,0,0,0,0,0,0.0064,0.006,0.0033,0.0036,0.0033,0.001,0.0005,-0.0017,-0.0042,-0.0016,-0.0018,-0.0022,-0.0071,-0.0085,-0.0089,-0.0123,-0.0111,-0.0113,-0.0115,-0.0116,-0.0161,-0.0161,0,0,0,0,0,0,0.0076,0.0062,0.0035,0.0032,0.0048,0.001,0.0005,0.0002,-0.0041,-0.0048,-0.0021,-0.0023,-0.008,-0.0086,-0.0091,-0.0091,-0.0114,-0.0116,-0.0117,-0.0162,-0.0161,-0.0161,0,0,0,0,0,0,0.0077,0.0074,0.0037,0.0047,0.0041,0.001,0.0007,0.0001,-0.0008,-0.0045,-0.0052,-0.0023,-0.0081,-0.0088,-0.0103,-0.0095,-0.0117,-0.0119,-0.0162,-0.0161,-0.0161,-0.0103,0,0,0,0,0,0,0.0079,0.0075,0.0078,0.0048,0.0041,0.0027,0.0007,-0.0,-0.0009,-0.0012,-0.0049,-0.0055,-0.0081,-0.0099,-0.0106,-0.0098,-0.0121,-0.0162,-0.0162,-0.0161,-0.0106,-0.0101,-0.0097,0,0,0,0,0,0.008,0.0086,0.0079,0.0075,0.0046,0.0028,0.0022,-0.0002,-0.0009,-0.001,-0.0034,-0.0054,-0.0101,-0.0101,-0.0109,-0.0102,-0.0162,-0.0162,-0.0161,-0.0107,-0.0102,-0.0097,0,0,0,0,0,0,0.0101,0.0082,0.0073,0.0073,0.0056,0.0023,0.002,0.0005,-0.0016,-0.0015,-0.0051,-0.0059,-0.007,-0.0094,-0.0093,-0.0114,-0.0135,-0.0136,-0.0092,-0.0087,-0.0083,-0.0069,-0.0123,0,0,0,0,0,0.0108,0.0109,0.0085,0.0086,0.008,0.0052,0.0043,0.0028,0.0006,-0.0003,-0.0029,-0.0055,-0.0075,-0.0086,-0.011,-0.012,-0.0143,-0.0122,-0.0117,-0.0114,-0.0108,-0.0134,-0.0131,-0.0159,-0.0159,-0.0159,0,0,0.0116,0.0107,0.0107,0.0091,0.0075,0.0074,0.0046,0.0038,0.0037,-0.0006,-0.0013,-0.004,-0.0075,-0.0087,-0.0094,-0.0104,-0.0118,-0.0113,-0.0109,-0.0105,-0.0133,-0.013,-0.0128,-0.0159,-0.0159,-0.0159,0,0,0.0136,0.0126,0.0134,0.0123,0.0108,0.0093,0.0096,0.0069,0.0058,0.0046,0.0017,-0.0002,-0.0036,-0.0058,-0.0074,-0.0061,-0.0094,-0.0069,-0.0037,-0.0062,-0.006,-0.0058,-0.0081,-0.0082,-0.0067,-0.0067,-0.0067,0,0.0147,0.0153,0.0133,0.0137,0.0137,0.0108,0.0119,0.0101,0.0073,0.007,0.0053,0.0008,-0.0022,-0.0035,-0.0032,-0.0051,-0.007,-0.0051,-0.0056,-0.0055,-0.0054,-0.0078,-0.0079,-0.0064,-0.0065,-0.0065,-0.0065,0,0.017,0.0174,0.0179,0.0178,0.0177,0.0179,0.016,0.0152,0.0139,0.0122,0.0106,0.0062,0.0038,0.0022,-0.0002,-0.001,-0.0026,-0.0046,-0.0065,-0.0048,-0.0074,-0.0076,-0.006,-0.0061,-0.0062,-0.0063,0,0,0.0196,0.0197,0.0198,0.021,0.0201,0.0204,0.0206,0.0202,0.021,0.0174,0.0179,0.0134,0.0112,0.0092,0.0056,0.0031,0.0016,-0.0001,-0.0003,-0.0016,-0.0037,-0.0043,-0.0047,-0.0004,-0.0004,-0.0004,-0.0056,0,0.0222,0.0244,0.0238,0.0266,0.0279,0.026,0.0267,0.026,0.0248,0.0242,0.0195,0.0184,0.0138,0.0129,0.0097,0.0039,0.0011,0.0032,-0.0058,-0.006,-0.0063,-0.005,-0.0028,-0.0072,-0.0059,-0.0059,-0.0059,0,0.025,0.0262,0.0295,0.0317,0.0322,0.0333,0.035,0.0354,0.0335,0.0325,0.0301,0.0264,0.0225,0.0181,0.0093,0.0109,0.0044,-0.0008,-0.0011,-0.0038,-0.0071,-0.0089,-0.0077,-0.0064,-0.0064,-0.0064,-0.0063,0,0.0287,0.0306,0.034,0.0344,0.0359,0.0372,0.0382,0.038,0.0397,0.0381,0.0389,0.033,0.031,0.022,0.0117,0.0105,0.0018,-0.0015,-0.0084,-0.0086,-0.0096,-0.0097,-0.0079,-0.0079,-0.0079,-0.0079,-0.0079,0,0.0319,0.0344,0.0358,0.0374,0.0417,0.0416,0.0457,0.0455,0.0465,0.0501,0.0439,0.0448,0.0319,0.0253,0.0144,0.0032,0.0038,-0.0073,-0.0097,-0.0075,-0.0074,-0.0092,-0.0093,-0.0081,-0.0081,-0.008,-0.008,0,0.0352,0.036,0.0399,0.0423,0.0436,0.0468,0.0508,0.0539,0.0541,0.0585,0.0586,0.0538,0.0459,0.0325,0.0185,0.0079,-0.0038,-0.0083,-0.0045,-0.0063,-0.0135,-0.0132,-0.0168,-0.0169,-0.0169,-0.017,-0.017,0,0.037,0.0394,0.0438,0.0466,0.0478,0.052,0.0555,0.0575,0.0619,0.0647,0.068,0.0618,0.0594,0.0386,0.0192,0.0007,-0.0028,-0.0107,-0.0132,-0.0123,-0.0143,-0.0139,-0.0136,-0.0126,-0.0126,-0.0126,-0.0126,0,0.0405,0.0421,0.0452,0.0507,0.0552,0.0605,0.066,0.0705,0.0744,0.0782,0.0824,0.0807,0.063,0.0452,0.0198,0.0067,-0.0077,-0.0113,-0.0111,-0.0102,-0.0086,-0.0104,-0.0102,-0.0125,-0.0125,-0.0125,-0.0125,-0.0125,0.0432,0.0457,0.0497,0.055,0.0607,0.0681,0.0728,0.0796,0.0869,0.0937,0.0927,0.0909,0.0717,0.0399,0.0174,-0.0071,-0.0062,-0.0159,-0.0157,-0.0157,-0.0138,-0.0123,-0.0166,-0.0167,-0.0167,-0.0167,-0.0167,0,0.0459,0.0486,0.0536,0.0601,0.0663,0.0692,0.0794,0.084,0.0929,0.1005,0.1037,0.0853,0.0669,0.0436,0.0084,-0.0124,-0.0145,-0.02,-0.0179,-0.0177,-0.0175,-0.0158,-0.0191,-0.0192,-0.0193,-0.0194,0,0,0.0473,0.0514,0.0533,0.0627,0.0682,0.0767,0.0826,0.0899,0.0965,0.102,0.1026,0.1027,0.0755,0.0493,0.0214,0.0009,-0.0041,-0.0036,0.0008,0.0069,0.0072,-0.0124,-0.0091,0,0,0,0,0]}],[{"header":{"parameterUnit":"m.s-1","parameterCategory":2,"la1":30.2991,"la2":30.254,"lo1":-89.0895,"lo2":-89.0444,"dy":0.0017,"dx":0.0017,"nx":28,"ny":28,"refTime":"2023-09-03T09:00:00:Z","depth":"4","parameterNumber":2,"parameterNumberName":"U-component_of_CURRENTS"},"data":[0,0,0,0,0,0,0,0,0,0,0,0,0,0,0,0,0,0,0,0,0,0,0,0,0,0,0,0,0,0,0,0,0,0,0,0,0,0,0,0,0,0,0,0,0,0,0,0,0,0,0,0,0,0,0,0,0,0,0.1445,0.1446,0,0.1496,0.1497,0.1497,0.1543,0.1544,0.1545,0.1545,0.1607,0.1608,0.1609,0,0,0,0,0,0,0,0,0,0,0,0,0,0.1373,0.1374,0.1445,0.1446,0.1446,0.1496,0.1497,0.1497,0.1543,0.1544,0.1545,0.1546,0.1607,0.1608,0.1609,0,0,0,0,0,0,0,0,0,0,0,0,0,0.1411,0.1375,0.1445,0.1476,0.148,0.1496,0.1497,0.1498,0.1543,0.1544,0.1545,0.1546,0.1606,0.1608,0.1609,0.1599,0,0,0.1614,0.1615,0,0,0,0,0,0,0,0,0.1409,0.1414,0.1471,0.1474,0.1478,0.1516,0.1495,0.1532,0.1543,0.1518,0.1545,0.1547,0.1578,0.1582,0.1587,0.1602,0.1604,0.1614,0.1615,0.1616,0.1616,0,0,0,0,0,0,0,0.1406,0.1412,0.1464,0.1472,0.1476,0.1484,0.149,0.1502,0.154,0.152,0.1524,0.1531,0.158,0.1585,0.1589,0.1605,0.1614,0.1616,0.1617,0.1617,0.1709,0.171,0,0,0,0,0,0,0.1403,0.1409,0.1462,0.1466,0.1447,0.1484,0.1491,0.1501,0.154,0.1547,0.153,0.1533,0.1582,0.1587,0.1591,0.1665,0.1616,0.1617,0.1618,0.1707,0.1709,0.1711,0,0,0,0,0,0,0.1401,0.1407,0.146,0.1439,0.1447,0.1485,0.1495,0.1502,0.1541,0.1548,0.1556,0.1567,0.1583,0.1589,0.1633,0.1665,0.1618,0.1619,0.1705,0.1708,0.171,0.1759,0,0,0,0,0,0,0.1399,0.1406,0.1427,0.1439,0.1448,0.1491,0.1495,0.1502,0.1543,0.1548,0.1581,0.1586,0.1584,0.1631,0.1634,0.1666,0.1621,0.1703,0.1706,0.1709,0.1755,0.1762,0.1768,0,0,0,0,0,0.1396,0.1414,0.1427,0.1434,0.147,0.1492,0.1498,0.1526,0.1544,0.1565,0.1592,0.1587,0.1651,0.1633,0.1637,0.167,0.1702,0.1705,0.1709,0.1752,0.1761,0.1768,0,0,0,0,0,0,0.1394,0.1421,0.1436,0.1463,0.1487,0.1501,0.1528,0.1544,0.1581,0.1598,0.1604,0.161,0.1661,0.1659,0.1639,0.1705,0.1677,0.1681,0.1708,0.1717,0.1723,0.1724,0.1622,0,0,0,0,0,0.1402,0.1428,0.1449,0.1475,0.1491,0.1516,0.1535,0.1555,0.158,0.16,0.1622,0.1648,0.1672,0.1691,0.1709,0.1743,0.1743,0.1768,0.1775,0.178,0.1785,0.1811,0.182,0.1722,0.1722,0.1722,0,0,0.1409,0.1429,0.1444,0.1478,0.1502,0.1526,0.1531,0.157,0.1598,0.1599,0.1656,0.1675,0.1687,0.1728,0.1751,0.1735,0.181,0.1784,0.1789,0.1791,0.1816,0.1825,0.1834,0.1724,0.1724,0.1723,0,0,0.1423,0.1456,0.1478,0.1501,0.1542,0.1557,0.1575,0.161,0.1639,0.1684,0.1696,0.1736,0.1771,0.1787,0.1797,0.1851,0.1845,0.1864,0.1898,0.1924,0.1932,0.1939,0.1955,0.1963,0.1866,0.1866,0.1866,0,0.1434,0.1463,0.1489,0.1514,0.1538,0.1574,0.1601,0.1631,0.1678,0.1703,0.1712,0.1781,0.1796,0.184,0.1864,0.1866,0.1878,0.1865,0.1932,0.1939,0.1945,0.196,0.1968,0.1869,0.1868,0.1868,0.1868,0,0.1452,0.1488,0.1506,0.155,0.1578,0.1612,0.1649,0.169,0.173,0.1755,0.1821,0.1846,0.1884,0.19,0.19,0.1958,0.1951,0.1937,0.1909,0.1958,0.197,0.1978,0.1873,0.1872,0.1871,0.187,0,0,0.1439,0.1506,0.1516,0.1543,0.1603,0.1623,0.1679,0.1729,0.1772,0.1823,0.1872,0.1925,0.1948,0.1962,0.1976,0.2003,0.2062,0.1998,0.1998,0.2008,0.2121,0.1995,0.1991,0.2064,0.2065,0.2067,0.2113,0,0.145,0.1498,0.1531,0.1585,0.1613,0.1662,0.1708,0.1761,0.1812,0.1869,0.191,0.1966,0.1969,0.2002,0.2031,0.2058,0.2085,0.2051,0.2076,0.2077,0.1954,0.1997,0.2072,0.2118,0.212,0.2121,0.2122,0,0.145,0.1486,0.1538,0.1606,0.1624,0.1667,0.1746,0.1793,0.1873,0.1915,0.1974,0.2008,0.2072,0.2061,0.213,0.2112,0.2125,0.2137,0.2138,0.2007,0.1965,0.2059,0.2136,0.2135,0.2134,0.2133,0.2132,0,0.1414,0.1488,0.1532,0.1556,0.1637,0.168,0.1732,0.1814,0.1855,0.1955,0.1993,0.2066,0.2112,0.2146,0.2178,0.2165,0.2238,0.2215,0.2112,0.2103,0.2181,0.2173,0.2257,0.2257,0.2257,0.2257,0.2257,0,0.1394,0.1433,0.1528,0.155,0.1608,0.1676,0.1745,0.1807,0.1894,0.1941,0.2022,0.2062,0.2139,0.2183,0.22,0.2178,0.2256,0.2123,0.2107,0.2201,0.2195,0.2186,0.2178,0.2259,0.2258,0.2258,0.2258,0,0.1341,0.1404,0.1458,0.1558,0.1592,0.1637,0.1738,0.178,0.188,0.1943,0.1978,0.2077,0.2136,0.2188,0.2248,0.2189,0.2192,0.2165,0.2271,0.226,0.2034,0.2028,0.2044,0.204,0.2037,0.2034,0.2032,0,0.1314,0.134,0.1449,0.1482,0.1534,0.161,0.1655,0.1762,0.1803,0.1934,0.1951,0.2048,0.2099,0.207,0.215,0.2162,0.214,0.212,0.2065,0.203,0.2014,0.2013,0.2011,0.2026,0.2025,0.2024,0.2024,0,0.1261,0.1316,0.1362,0.1429,0.1487,0.1532,0.1611,0.1621,0.174,0.1841,0.1865,0.189,0.195,0.1987,0.2011,0.2021,0.2118,0.2083,0.209,0.2038,0.2008,0.1995,0.1997,0.2012,0.2013,0.2014,0.2015,0,0.1228,0.1244,0.1314,0.1358,0.1424,0.1439,0.1485,0.1526,0.157,0.1707,0.1718,0.1824,0.1926,0.1916,0.1946,0.1938,0.1907,0.1833,0.1852,0.1866,0.1787,0.1721,0.1627,0,0,0,0,0,0.1184,0.1192,0.1234,0.1271,0.133,0.1366,0.1447,0.1496,0.1603,0.157,0.1633,0.1679,0.1711,0.1775,0.1732,0.189,0.1929,0.1833,0.1856,0.1946,0.1959,0.1885,0,0,0,0,0,0,0.1155,0.1195,0.1203,0.1189,0.1197,0.1245,0.1291,0.1365,0.1348,0.1463,0.1487,0.1577,0.1637,0.1714,0.1699,0.1719,0.1698,0.1905,0.1901,0.1938,0.195,0.1961,0.1889,0,0,0,0,0]},{"header":{"parameterUnit":"m.s-1","parameterCategory":2,"la1":30.2991,"la2":30.254,"lo1":-89.0895,"lo2":-89.0444,"dy":0.0017,"dx":0.0017,"nx":28,"ny":28,"refTime":"2023-09-03T09:00:00:Z","depth":"4","parameterNumber":3,"parameterNumberName":"V-component_of_CURRENTS"},"data":[0,0,0,0,0,0,0,0,0,0,0,0,0,0,0,0,0,0,0,0,0,0,0,0,0,0,0,0,0,0,0,0,0,0,0,0,0,0,0,0,0,0,0,0,0,0,0,0,0,0,0,0,0,0,0,0,0,0,0.0012,0.0012,0,-0.0031,-0.0031,-0.0032,-0.0062,-0.0062,-0.0062,-0.0063,-0.0118,-0.0119,-0.012,0,0,0,0,0,0,0,0,0,0,0,0,0,0.0037,0.0037,0.0012,0.0012,0.0012,-0.003,-0.0031,-0.0032,-0.0062,-0.0062,-0.0063,-0.0063,-0.0117,-0.0119,-0.012,0,0,0,0,0,0,0,0,0,0,0,0,0,0.0012,0.0037,0.0012,-0.0008,-0.001,-0.003,-0.0031,-0.0032,-0.0062,-0.0062,-0.0063,-0.0063,-0.0117,-0.0119,-0.0121,-0.0129,0,0,-0.0127,-0.0128,0,0,0,0,0,0,0,0,0.0014,0.0011,-0.0004,-0.0006,-0.0009,-0.004,-0.0043,-0.0065,-0.0062,-0.0044,-0.0063,-0.0063,-0.0092,-0.0096,-0.0105,-0.0132,-0.0134,-0.0127,-0.0128,-0.0129,-0.013,0,0,0,0,0,0,0,0.0015,0.0013,-0.0006,-0.0005,-0.0007,-0.0025,-0.0029,-0.0047,-0.0067,-0.0045,-0.0047,-0.005,-0.0093,-0.0103,-0.0107,-0.0135,-0.0127,-0.0129,-0.013,-0.0131,-0.0171,-0.0171,0,0,0,0,0,0,0.0025,0.0015,-0.0005,-0.0007,0.0004,-0.0025,-0.0029,-0.0031,-0.0067,-0.0072,-0.005,-0.0051,-0.01,-0.0104,-0.0109,-0.0111,-0.0129,-0.0131,-0.0132,-0.0171,-0.0171,-0.0171,0,0,0,0,0,0,0.0026,0.0024,-0.0003,0.0004,-0.0001,-0.0025,-0.0027,-0.0032,-0.004,-0.007,-0.0076,-0.0052,-0.01,-0.0106,-0.0121,-0.0114,-0.0132,-0.0134,-0.0171,-0.0171,-0.0171,-0.0123,0,0,0,0,0,0,0.0027,0.0024,0.0027,0.0004,-0.0001,-0.001,-0.0027,-0.0032,-0.004,-0.0043,-0.0074,-0.008,-0.0101,-0.0118,-0.0123,-0.0117,-0.0135,-0.0171,-0.0171,-0.0171,-0.0125,-0.0121,-0.0118,0,0,0,0,0,0.0028,0.0032,0.0027,0.0025,0.0003,-0.001,-0.0014,-0.0034,-0.004,-0.0042,-0.0062,-0.0079,-0.012,-0.0119,-0.0125,-0.012,-0.0172,-0.0171,-0.0171,-0.0126,-0.0122,-0.0118,0,0,0,0,0,0,0.0042,0.0029,0.0023,0.0023,0.001,-0.0015,-0.0017,-0.0029,-0.0046,-0.0047,-0.0076,-0.0083,-0.0094,-0.0114,-0.0113,-0.0132,-0.0149,-0.015,-0.0113,-0.0109,-0.0105,-0.0094,-0.0137,0,0,0,0,0,0.0048,0.0049,0.0032,0.0032,0.0028,0.0007,-0.0,-0.0012,-0.003,-0.0038,-0.0059,-0.0081,-0.0098,-0.0108,-0.0128,-0.0137,-0.0157,-0.0139,-0.0135,-0.0132,-0.0128,-0.015,-0.0148,-0.017,-0.017,-0.017,0,0,0.0053,0.0047,0.0047,0.0036,0.0025,0.0024,0.0002,-0.0005,-0.0005,-0.004,-0.0047,-0.007,-0.0098,-0.0109,-0.0116,-0.0124,-0.0137,-0.0132,-0.0129,-0.0126,-0.0149,-0.0147,-0.0145,-0.0169,-0.017,-0.017,0,0,0.0067,0.006,0.0067,0.0059,0.0048,0.0038,0.0039,0.0019,0.001,0.0,-0.0024,-0.004,-0.0068,-0.0087,-0.0099,-0.009,-0.0119,-0.0098,-0.0071,-0.0092,-0.0091,-0.0089,-0.0112,-0.0113,-0.0096,-0.0096,-0.0096,0,0.0074,0.008,0.0066,0.0069,0.007,0.0048,0.0057,0.0043,0.0021,0.0019,0.0005,-0.0032,-0.0057,-0.0068,-0.0066,-0.0082,-0.0099,-0.0082,-0.0087,-0.0086,-0.0086,-0.0109,-0.0111,-0.0093,-0.0094,-0.0094,-0.0094,0,0.009,0.0095,0.0099,0.01,0.01,0.0102,0.0089,0.0083,0.0072,0.006,0.0047,0.0011,-0.0009,-0.0022,-0.0041,-0.0049,-0.0064,-0.0079,-0.0094,-0.0081,-0.0106,-0.0109,-0.009,-0.0091,-0.0092,-0.0092,0,0,0.0106,0.011,0.0112,0.0122,0.0118,0.0121,0.0123,0.0122,0.0129,0.0101,0.0105,0.0069,0.0051,0.0035,0.0005,-0.0016,-0.003,-0.0042,-0.0044,-0.0058,-0.0078,-0.0076,-0.0079,-0.0045,-0.0045,-0.0046,-0.0097,0,0.0124,0.0142,0.0141,0.0164,0.0175,0.0164,0.0171,0.0167,0.0159,0.0155,0.0118,0.011,0.0073,0.0066,0.0039,-0.001,-0.0035,-0.0015,-0.0094,-0.0096,-0.0092,-0.0081,-0.0046,-0.0099,-0.01,-0.01,-0.0101,0,0.0141,0.0153,0.0181,0.0203,0.0208,0.0219,0.0236,0.0241,0.0229,0.0222,0.0204,0.0175,0.0143,0.0107,0.0031,0.0047,-0.001,-0.0054,-0.0057,-0.0073,-0.0099,-0.0118,-0.0106,-0.0105,-0.0105,-0.0105,-0.0104,0,0.0163,0.0184,0.0212,0.0217,0.0234,0.0248,0.026,0.0262,0.0279,0.0268,0.0277,0.0228,0.0212,0.0136,0.005,0.004,-0.0037,-0.0063,-0.0118,-0.0119,-0.0127,-0.0128,-0.012,-0.012,-0.012,-0.0119,-0.0119,0,0.0183,0.0204,0.0224,0.0237,0.0276,0.0281,0.0318,0.032,0.0334,0.0363,0.0317,0.032,0.0219,0.0162,0.007,-0.0023,-0.0021,-0.0109,-0.0129,-0.0106,-0.0104,-0.0129,-0.0129,-0.0121,-0.0121,-0.0121,-0.012,0,0.0198,0.021,0.0244,0.0273,0.0287,0.0315,0.036,0.0386,0.0395,0.0429,0.0431,0.0392,0.0321,0.0215,0.0095,0.0015,-0.0083,-0.012,-0.0079,-0.0097,-0.016,-0.0157,-0.0189,-0.0189,-0.0189,-0.0189,-0.019,0,0.0205,0.0225,0.0271,0.0298,0.0313,0.0354,0.0387,0.0414,0.0449,0.0473,0.0494,0.0444,0.04,0.0242,0.0118,-0.005,-0.0082,-0.0137,-0.016,-0.0149,-0.0166,-0.0162,-0.016,-0.019,-0.019,-0.019,-0.019,0,0.022,0.0239,0.0266,0.032,0.0363,0.0412,0.0462,0.0493,0.0531,0.0541,0.0551,0.0471,0.0392,0.0255,0.0131,0.0004,-0.0103,-0.0141,-0.0142,-0.0164,-0.0151,-0.0167,-0.0163,-0.0191,-0.0191,-0.0191,-0.0191,0,0.0232,0.0253,0.0292,0.034,0.0397,0.0454,0.0479,0.0523,0.0558,0.0589,0.059,0.0504,0.0457,0.0283,0.0167,0.0048,0.0002,-0.0054,-0.006,-0.0061,-0.0013,0.0022,0.0024,0,0,0,0,0,0.0243,0.0266,0.0308,0.0363,0.042,0.0454,0.0524,0.0547,0.0587,0.0604,0.06,0.0528,0.0368,0.03,0.0181,0.0136,-0.0034,-0.0011,-0.0105,-0.0196,-0.0195,-0.0161,0,0,0,0,0,0,0.025,0.0288,0.0305,0.0372,0.0411,0.0479,0.0525,0.0554,0.0563,0.0587,0.0509,0.0482,0.0327,0.0436,0.0174,0.0138,0.0057,-0.008,-0.0084,-0.0196,-0.0196,-0.0195,-0.016,0,0,0,0,0]}]]